Regional Weather Roundup
Issued by NWS Memphis, TN

Home | Current Version | Previous Version | Text Only | Print | Product List | Glossary On
Versions: 1 2 3 4 5 6 7 8 9 10 11 12 13 14 15 16 17 18 19 20 21 22 23 24 25 26 27 28 29 30 31 32 33 34 35 36 37 38 39 40 41 42 43 44 45 46 47 48 49 50
000
ASUS44 KMEG 241310
RWRMEG
MEMPHIS CWA HOURLY WEATHER ROUNDUP
NATIONAL WEATHER SERVICE MEMPHIS TN
700 AM CST FRI NOV 24 2017

...WEST TENNESSEE...

CITY           SKY/WX    TMP DP  RH WIND       PRES   REMARKS
MEMPHIS INTL   PTCLDY    38  28  67 S5        30.00R WCI  34
NWS MEMPHIS      N/A     36 N/A N/A MISG        N/A
JACKSON        CLOUDY    28  27  96 CALM      30.01R
COVINGTON      CLEAR     34  27  75 S6        30.00R WCI  29
SOMERVILLE     CLEAR     36  27  69 S5        29.99S WCI  32
BOLIVAR        CLEAR     30  27  86 CALM      30.01R
LEXINGTON      CLEAR     28  27  93 CALM      30.02R
SELMER         CLEAR     30  25  80 CALM      30.00S
SAVANNAH       CLEAR     28  27  93 CALM      30.01S
DYERSBURG      CLOUDY    37  27  67 S5        30.00R WCI  33
UNION CITY     CLEAR     32  27  80 S6        29.99R WCI  26
PARIS          CLEAR     34  25  69 CALM      29.98S
HUNTINGDON     CLEAR     30  25  80 CALM      29.99S


...EASTERN ARKANSAS...

CITY           SKY/WX    TMP DP  RH WIND       PRES   REMARKS
JONESBORO      CLOUDY    33  30  88 CALM      29.97R
WEST MEMPHIS   CLEAR     35  30  82 S10       29.99S WCI  27
BATESVILLE     PTCLDY    37  31  78 E3        29.96R
NEWPORT        PTCLDY    35  30  82 S8        29.97S WCI  29
WALNUT RIDGE     N/A     33  29  85 S5        29.97R WCI  29
BLYTHEVILLE    CLEAR     38  30  73 S8        29.98S WCI  32
SEARCY         CLOUDY    30  30 100 CALM      29.99S
STUTTGART      CLEAR     40  30  67 S8        30.00S WCI  34
PINE BLUFF     CLEAR     32  28  85 S3        30.01S
MONTICELLO     CLOUDY    35  30  82 CALM      30.03R


...NORTH MISSISSIPPI...

CITY           SKY/WX    TMP DP  RH WIND       PRES   REMARKS
TUPELO         PTCLDY    31  27  85 CALM      30.04R
OXFORD         PTCLDY    30  28  93 CALM      30.04S
BATESVILLE     CLEAR     28  27  94 CALM      30.04S
OLIVE BRANCH   PTCLDY   N/A N/A N/A S6        29.97
TUNICA           N/A    N/A N/A N/A S6        30.03R
CLARKSDALE       N/A     36  30  80 S6        30.03R WCI  31
CORINTH        PTCLDY    28  27  93 CALM      30.02R
GREENWOOD      CLEAR     30  28  92 NE3       30.05R
COLUMBUS       CLOUDY    26  24  94 CALM      30.04R
STARKVILLE     CLOUDY    27  27 100 CALM      30.06R
GOLDEN TRIANGL CLOUDY    27  24  89 CALM      30.05R


...SOUTHEAST MISSOURI...

CITY           SKY/WX    TMP DP  RH WIND       PRES   REMARKS
KENNETT        CLEAR     36  30  80 SW5       29.97R WCI  32
MALDEN         CLOUDY    36  30  80 S6        29.98R WCI  31
WEST PLAINS    CLOUDY    42  30  62 SW3       29.92R
POPLAR BLUFF   PTCLDY    29  28  96 CALM      29.95S
CAPE GIRARDEAU PTCLDY    32  27  81 CALM      29.95S


...NORTHWEST ALABAMA...

CITY           SKY/WX    TMP DP  RH WIND       PRES   REMARKS
MUSCLE SHOALS  CLOUDY    28  24  85 CALM      30.05R


...MIDDLE TENNESSEE...

CITY           SKY/WX    TMP DP  RH WIND       PRES   REMARKS
NASHVILLE      CLOUDY    31  26  82 CALM      30.02R
CLARKSVILLE    CLOUDY    29  24  82 SE3       30.00R
COLUMBIA       CLEAR     27  27 100 CALM      30.01R


...WESTERN KENTUCKY...

CITY           SKY/WX    TMP DP  RH WIND       PRES   REMARKS
PADUCAH        PTCLDY    38  24  57 VRB3      29.96R
FORT CAMPBELL  CLOUDY    31  24  74 SE3       29.99S


...CENTRAL ARKANSAS...

CITY           SKY/WX    TMP DP  RH WIND       PRES   REMARKS
LITTLE ROCK    MOCLDY    35  32  88 CALM      29.99S


SKY/WX REPORTED AS FAIR MEANS FEW OR NO CLOUDS BELOW
12 THOUSAND FEET.




USA.gov is the U.S. government's official web portal to all federal, state and local government web resources and services.